Regional Weather Roundup
Issued by NWS Jackson, KY

Home | Current Version | Previous Version | Text Only | Print | Product List | Glossary On
Versions: 1 2 3 4 5 6 7 8 9 10 11 12 13 14 15 16 17 18 19 20 21 22 23 24 25 26 27 28 29 30 31 32 33 34 35 36 37 38 39 40 41 42 43 44 45 46 47 48 49 50
000
ASUS43 KJKL 271619
RWRJKL

EAST KENTUCKY HOURLY WEATHER ROUNDUP
NATIONAL WEATHER SERVICE JACKSON KY
1100 AM EST SAT DEC 27 2014

NOTE: "FAIR" INDICATES FEW OR NO CLOUDS BELOW 12,000 FEET WITH
NO SIGNIFICANT WEATHER AND/OR OBSTRUCTIONS TO VISIBILITY.

* THESE REPORTS ARE NOT UNDER NWS QUALITY CONTROL AND MAY NOT
  REPORT WEATHER SUCH AS PRECIPITATION AND FOG.

KYZ079-080-083-085-087-088-110-112-115-119-120-271700
...EASTERN KENTUCKY...

CITY           SKY/WX    TMP DP  RH WIND       PRES   REMARKS
JACKSON        PTSUNNY   52  29  41 CALM      30.27R
LONDON         CLOUDY    52  30  43 S3        30.27S
SOMERSET*      CLOUDY    50  34  53 S6        30.27F
MONTICELLO*    CLOUDY    53  38  56 S3        30.29S
MIDDLESBORO*   CLOUDY    50  35  56 SE5       30.31S
HARLAN APT*    PTSUNNY   50  36  57 SE3       30.29S
HAZARD APT*    MOSUNNY   54  30  40 CALM      30.27
BLACK MTN*       N/A     50  14  23 SW7         N/A
PIKEVILLE APT* SUNNY     50  30  46 S3        30.27R
BIG SANDY*     MOSUNNY   53  31  43 S5        30.28F
MOREHEAD APT*  CLOUDY    52  34  50 SE7G14    30.26F
ASHLAND*       MOSUNNY  N/A N/A N/A SE5       30.23F
$$

KYZ035-036-041-042-044-050-067-078-099-271700
...CENTRAL KENTUCKY...

CITY           SKY/WX    TMP DP  RH WIND       PRES   REMARKS
MT STERLING*   CLOUDY    50  36  57 SW10      30.26S
FLEMING/MASON* CLOUDY    50  36  57 S9        30.24R
DANVILLE*      CLOUDY    52  36  54 SW9       30.25S
RICHMOND*      CLOUDY    54  32  43 S8        30.24F
LEXINGTON      CLOUDY    51  35  54 S10       30.23S
FRANKFORT      CLOUDY    52  37  56 SW13G20   30.22R
$$

KYZ091>093-OHZ055-061-077-WVZ005-015-034-035-042-271700
...SOUTHERN OHIO/WEST VIRGINIA...

CITY           SKY/WX    TMP DP  RH WIND       PRES   REMARKS
COVINGTON      CLOUDY    48  38  68 S8        30.19S
COLUMBUS       CLOUDY    48  33  56 S8        30.18F
DAYTON         PTSUNNY   48  38  68 S15       30.14F
WILMINGTON     PTSUNNY   49  37  63 SW15      30.17F
HUNTINGTON     MOSUNNY   52  33  48 CALM      30.26S
CHARLESTON     PTSUNNY   50  36  58 NE3       30.25F
PINEVILLE*     SUNNY     50  39  66 MISG      30.33F
BECKLEY        SUNNY     54  21  27 W3        30.26F
BLUEFIELD      MOSUNNY   55  22  27 CALM      30.30R
$$

VAZ002-007-008-TNZ017-027-036-066-071-271700
...SOUTHWEST VIRGINIA/EAST TENNESSEE...

CITY           SKY/WX    TMP DP  RH WIND       PRES   REMARKS
WISE*          MOSUNNY   52  27  37 SW6       30.30F
JONESVILLE*    MOSUNNY   45  36  70 CALM      30.34R
ABINGDON*      MOSUNNY   55  28  35 CALM      30.30F
BRISTOL        MOSUNNY   51  30  44 CALM      30.31F
KNOXVILLE      CLOUDY    47  38  71 CALM      30.32F
OAK RIDGE      CLOUDY    48  39  71 SW5       30.34S
CROSSVILLE     PTSUNNY   52  32  46 S8        30.29R
NASHVILLE      CLOUDY    56  39  53 S13       30.24F
$$

...KEY TO REMARKS...
VSB - VISIBILITY IN MILES
WCI - WIND CHILL INDEX
HX  - HEAT INDEX

$$


USA.gov is the U.S. government's official web portal to all federal, state and local government web resources and services.